Location: Poughquag
(41.6090°N, 73.6820°W)
Time: 12:34:59
(UTC-04:00)

DIWATA 2B (PO-101) - Pass Details

Date: 03 June 2024
Orbit: 574 x 588 km, 98.1° (Epoch: 14 June)

Event Time Altitude Azimuth Distance (km) Brightness Sun altitude
Rises 04:36:52 0° 174° (S) 2,779 ? -7.7°
Reaches altitude 10° 04:39:02 10° 178° (S) 1,883 ? -7.4°
Maximum altitude 04:43:04 60° 259° (WSW) 661 ? -6.8°
Drops below altitude 10° 04:47:07 10° 340° (NNW) 1,892 ? -6.2°
Sets 04:49:18 0° 344° (NNW) 2,794 ? -5.9°
